Location: Unspecified
(57.6483°N, 3.3184°W)
Time: 10:41:47
(UTC+00:00)

BlueWalker 3 - Pass Details

Date: 30 January 2026
Orbit: 450 x 461 km, 53.2° (Epoch: 11 February)

Event Time Altitude Azimuth Distance (km) Brightness Sun altitude
Rises 18:28:07 0° 255° (WSW) 2,459 7.3 -14.9°
Reaches altitude 10° 18:30:19 10° 248° (WSW) 1,585 5.8 -15.2°
Maximum altitude 18:33:40 40° 177° (S) 674 2.6 -15.7°
Enters shadow 18:35:08 26° 126° (SE) 919 2.9 -15.8°
